Simultaneous Nadir Overpasses (SNOs) Predictions

Prediction of SNOs between METOP-A and NPP Satellite Orbit:

Table of predicted SNOs for the next 14.0 days since TLE Epoch: 10/6/2014
Index Date (METOP-A) Time (METOP-A) Lat,Lon (METOP-A) SZA (METOP-A ) Date (NPP) Time (NPP) Lat,Lon (NPP) SZA (NPP ) Distance(km) Time Diff (sec)
1 10/08/2014 17:11:39 -73.95, 96.71 100.09 10/08/2014 17:10:33 -74.00, 93.49 99.98 98.99 66
2 10/08/2014 18:02:23 73.77, -96.40 79.75 10/08/2014 18:01:14 73.74, -98.58 79.77 68.02 69
3 10/08/2014 18:53:07 -73.63, 70.61 100.37 10/08/2014 18:51:56 -73.65, 68.95 100.32 52.16 71
4 10/08/2014 19:43:51 73.45,-122.49 79.47 10/08/2014 19:42:38 73.44,-123.26 79.48 24.56 73
5 10/08/2014 20:34:34 -73.36, 44.65 100.61 10/08/2014 20:33:20 -73.35, 44.26 100.60 12.53 74
6 10/08/2014 21:25:16 73.28,-148.21 79.33 10/08/2014 21:24:05 73.29,-148.29 79.35 3.14 71
7 10/08/2014 22:15:58 -73.24, 19.04 100.70 10/08/2014 22:14:48 -73.25, 19.11 100.68 2.52 70
8 10/08/2014 23:06:38 73.25,-173.60 79.33 10/08/2014 23:05:34 73.24,-173.55 79.32 2.07 64
9 10/08/2014 23:57:18 -73.27, -6.24 100.64 10/08/2014 23:56:17 -73.25, -6.26 100.66 2.29 61
10 10/09/2014 00:47:59 73.23, 161.01 79.34 10/09/2014 00:47:03 73.24, 161.07 79.35 2.28 56
11 10/09/2014 01:38:40 -73.25, -31.63 100.64 10/09/2014 01:37:47 -73.25, -31.63 100.63 0.30 53
12 10/09/2014 02:29:20 73.26, 135.73 79.39 10/09/2014 02:28:33 73.24, 135.70 79.38 2.43 47
13 10/09/2014 03:20:02 -73.23, -57.01 100.63 10/09/2014 03:19:17 -73.25, -57.01 100.61 2.56 45
14 10/09/2014 04:10:42 73.24, 110.34 79.40 10/09/2014 04:10:03 73.24, 110.33 79.40 0.50 39
15 10/09/2014 05:01:23 -73.25, -82.29 100.58 10/09/2014 05:00:47 -73.25, -82.38 100.58 2.82 36
16 10/09/2014 05:52:04 73.21, 84.95 79.40 10/09/2014 05:51:33 73.24, 84.95 79.43 2.57 31
17 10/09/2014 06:42:45 -73.23,-107.68 100.57 10/09/2014 06:42:17 -73.25,-107.75 100.55 2.79 28
18 10/09/2014 07:33:25 73.24, 59.67 79.46 10/09/2014 07:33:03 73.24, 59.58 79.45 3.06 22
19 10/09/2014 08:24:07 -73.21,-133.07 100.57 10/09/2014 08:23:46 -73.20,-133.01 100.58 2.38 21
20 10/09/2014 09:14:47 73.22, 34.29 79.46 10/09/2014 09:14:33 73.23, 34.21 79.48 3.03 14
21 10/09/2014 10:05:29 -73.19,-158.46 100.56 10/09/2014 10:05:16 -73.19,-158.38 100.56 2.50 13
22 10/09/2014 10:56:09 73.20, 8.90 79.47 10/09/2014 10:56:02 73.18, 8.95 79.45 2.15 7
23 10/09/2014 11:46:50 -73.21, 176.26 100.51 10/09/2014 11:46:46 -73.19, 176.24 100.53 2.46 4
24 10/09/2014 12:37:31 73.17, -16.49 79.47 10/09/2014 12:37:32 73.18, -16.43 79.48 2.34 1
25 10/09/2014 13:28:12 -73.19, 150.88 100.50 10/09/2014 13:28:16 -73.19, 150.87 100.50 0.17 4
26 10/09/2014 14:18:52 73.20, -41.77 79.52 10/09/2014 14:19:02 73.18, -41.80 79.50 2.41 10
27 10/09/2014 15:09:34 -73.17, 125.49 100.50 10/09/2014 15:09:46 -73.19, 125.50 100.48 2.39 12
28 10/09/2014 16:00:14 73.18, -67.16 79.53 10/09/2014 16:00:32 73.18, -67.17 79.53 0.43 18
29 10/09/2014 16:50:55 -73.20, 100.21 100.45 10/09/2014 16:51:16 -73.19, 100.13 100.45 2.82 21
30 10/09/2014 17:41:36 73.16, -92.55 79.53 10/09/2014 17:42:02 73.18, -92.54 79.55 2.57 26
31 10/09/2014 18:32:17 -73.18, 74.82 100.44 10/09/2014 18:32:46 -73.19, 74.75 100.43 2.66 29
32 10/09/2014 19:22:57 73.18,-117.83 79.59 10/09/2014 19:23:32 73.18,-117.92 79.58 2.99 35
33 10/09/2014 20:13:39 -73.15, 49.43 100.44 10/09/2014 20:14:15 -73.14, 49.49 100.45 2.50 36
34 10/09/2014 21:04:19 73.16,-143.22 79.59 10/09/2014 21:05:02 73.18,-143.29 79.61 3.00 43
35 10/09/2014 21:55:01 -73.13, 24.04 100.43 10/09/2014 21:55:45 -73.14, 24.12 100.43 2.47 44
36 10/09/2014 22:45:41 73.14,-168.60 79.60 10/09/2014 22:46:31 73.13,-168.55 79.58 2.17 50
37 10/09/2014 23:36:22 -73.16, -1.24 100.38 10/09/2014 23:37:15 -73.14, -1.26 100.40 2.59 53
38 10/10/2014 00:27:03 73.12, 166.01 79.60 10/10/2014 00:28:01 73.13, 166.07 79.61 2.39 58
39 10/10/2014 01:17:44 -73.14, -26.62 100.37 10/10/2014 01:18:45 -73.14, -26.63 100.38 0.20 61
40 10/10/2014 02:08:24 73.15, 140.73 79.66 10/10/2014 02:09:31 73.13, 140.70 79.63 2.36 67
41 10/10/2014 02:59:06 -73.11, -52.01 100.37 10/10/2014 03:00:15 -73.13, -52.00 100.35 2.28 69
42 10/10/2014 03:49:47
